Wind_Speed
39 37 36 35 34 33 32 31 30 29 28 29 24 19 19 18 17 16 20 19 18 18 29 33 31 29 21 17 7 5 7 0 3 2 3 3 2 4 1 4 6 7 7 4 4 5 9 8 4 4 2 3 3 4
38 36 36 34 34 32 32 30 29 27 27 28 25 21 20 20 19 18 23 20 23 21 30 40 40 39 38 36 27 16 13 13 9 4 2 1 3 1 4 7 3 1 6 3 7 6 2 14 1 8 4 3 2 5
38 37 36 34 34 33 30 31 28 26 26 25 26 24 22 21 19 20 22 23 24 20 27 19 14 21 21 19 15 15 13 10 11 18 6 4 9 3 5 6 2 2 5 3 1 3 2 11 11 12 11 10 7 6
40 37 35 34 34 33 31 28 25 24 25 21 23 23 22 22 21 20 23 23 22 14 9 20 22 21 18 14 15 20 28 27 21 10 5 3 3 7 2 1 2 4 4 4 5 8 10 10 6 8 13 11 8 8
40 37 36 35 32 30 28 25 23 22 23 22 23 21 20 20 19 22 25 27 27 19 7 20 27 28 27 26 22 20 22 21 8 3 4 3 4 1 2 1 4 7 6 4 4 2 2 3 2 5 6 12 12 13
38 38 35 32 30 27 27 25 22 22 22 22 22 21 20 18 19 21 10 6 5 11 7 3 7 10 11 11 9 9 10 8 7 4 3 5 3 1 3 2 2 12 10 11 3 9 6 5 6 5 5 8 12 13
37 33 32 29 27 26 25 23 23 23 21 21 21 20 19 20 19 14 9 12 18 24 6 4 3 3 6 6 4 2 3 4 6 4 4 3 1 3 2 3 5 13 14 11 10 6 4 6 0 2 5 10 11 12
34 31 29 28 26 26 25 25 26 23 19 20 20 21 22 25 26 19 22 21 20 16 8 3 2 2 5 2 2 2 2 2 5 3 3 1 1 2 3 1 6 10 9 3 4 4 2 0 5 7 9 11 12 10
36 32 31 29 26 26 26 25 25 18 15 17 19 19 26 10 5 5 8 13 12 10 4 3 2 3 4 3 3 2 1 2 1 1 1 1 2 4 2 3 6 8 6 5 2 2 4 5 8 10 10 11 9 7
36 36 34 30 28 26 24 24 20 14 14 15 15 7 5 3 5 12 3 1 1 3 4 3 1 2 3 3 1 3 1 1 2 1 3 2 3 11 9 9 11 10 7 1 7 5 6 8 9 10 10 8 6 4
30 29 28 26 26 25 22 21 16 10 13 8 3 4 9 10 9 1 2 2 2 2 5 3 3 2 2 2 2 2 2 1 2 0 1 2 3 1 7 8 3 5 2 6 3 2 3 4 8 9 8 6 4 3
31 28 26 22 22 20 21 18 15 14 9 5 6 15 10 2 2 1 2 1 3 3 4 2 4 3 2 1 2 1 1 0 2 3 1 3 2 3 6 1 4 5 8 6 5 6 6 7 6 5 4 3 3 2
30 29 26 23 22 21 20 18 16 14 9 8 4 2 2 3 1 4 4 3 2 6 6 4 1 2 0 0 2 1 2 2 2 1 3 3 3 6 3 6 8 10 10 7 9 7 7 6 5 4 2 2 2 2
32 29 27 25 23 22 19 19 20 13 8 5 3 4 4 4 4 3 1 2 2 4 7 5 2 2 2 1 0 2 1 1 2 2 4 1 4 1 7 9 11 12 9 10 10 8 6 5 4 3 3 3 1 1
32 30 29 27 23 22 18 25 19 16 7 5 4 4 5 7 4 2 3 3 2 6 7 3 2 2 1 1 1 1 1 3 4 3 1 0 3 5 11 13 12 13 12 11 8 6 5 5 4 3 2 1 2 3
29 28 30 28 25 24 21 28 21 15 6 5 6 4 4 1 3 2 5 4 5 7 6 2 2 0 3 2 2 5 2 4 3 2 2 5 3 8 13 14 12 13 13 10 8 6 4 3 2 2 2 2 4 6
28 31 30 28 26 21 35 24 15 8 7 5 6 12 13 7 6 2 5 6 8 10 2 2 3 6 1 1 3 3 4 2 1 6 10 8 7 11 14 15 15 15 13 10 7 5 3 3 2 1 2 4 6 7
31 32 26 28 27 38 32 13 7 6 6 10 4 4 9 7 5 4 6 8 11 8 5 3 3 3 4 4 3 3 8 7 9 11 10 6 12 13 13 15 16 15 12 10 7 4 4 4 3 1 4 6 7 8
32 29 27 30 43 23 7 9 6 5 11 6 9 12 7 6 9 10 8 8 11 8 3 3 3 3 4 4 2 1 4 4 8 10 5 8 14 14 14 15 14 13 12 10 6 5 5 4 2 3 5 6 8 9
24 28 27 41 36 7 5 5 8 4 3 3 3 3 3 4 5 4 8 9 13 6 6 4 4 3 5 7 7 7 6 9 10 8 7 11 15 17 15 14 14 13 12 9 8 7 6 4 4 5 6 8 9 9
33 43 42 39 19 6 4 6 5 3 3 2 4 3 2 3 3 4 5 11 9 6 3 11 13 10 14 14 12 13 13 14 12 9 7 14 17 17 16 15 14 13 10 9 8 7 6 5 5 6 7 9 9 10
37 34 33 18 5 4 3 4 3 2 2 2 2 3 2 2 3 4 5 9 6 8 8 6 10 12 14 15 15 15 15 15 12 10 11 12 19 19 19 17 16 13 10 9 8 6 6 6 6 7 8 8 9 9
35 24 10 3 3 2 2 4 2 1 1 1 1 1 2 2 2 3 3 6 7 9 13 15 16 16 17 18 18 15 12 11 10 14 11 11 14 15 14 14 13 11 10 9 8 7 6 6 8 7 7 8 9 8
21 6 3 3 2 2 5 2 2 1 1 0 0 3 1 2 1 2 3 4 7 8 8 10 13 15 15 13 13 13 12 11 11 15 10 12 13 14 12 12 12 10 9 8 7 7 7 7 8 8 8 9 9 9
3 2 1 2 3 4 2 1 1 1 1 3 1 2 1 1 1 2 3 3 3 4 5 9 12 10 11 9 7 5 7 9 14 12 9 12 13 13 12 12 12 11 10 9 7 7 7 8 8 8 9 9 9 7
3 1 2 3 2 2 4 3 4 4 2 2 3 2 1 1 2 4 2 2 4 6 10 15 17 15 9 6 6 3 3 11 12 10 8 11 12 9 8 9 9 9 8 7 8 7 7 7 7 8 9 8 5 4
2 1 1 2 3 4 2 1 2 2 3 4 2 3 2 2 4 3 4 4 5 13 19 22 20 15 11 7 8 5 4 11 11 8 6 10 11 10 9 7 6 7 5 5 6 6 5 6 8 8 7 6 5 5
2 3 1 4 3 3 1 2 3 3 2 3 5 3 4 4 3 2 3 11 18 21 20 18 14 10 9 10 11 11 8 10 11 10 9 9 12 12 10 8 7 6 5 5 5 4 5 7 7 5 4 4 3 3
1 2 3 1 2 3 4 3 2 3 3 6 2 2 2 3 4 8 14 17 19 17 15 11 7 4 6 11 13 13 11 10 11 13 12 12 12 13 12 9 7 6 5 5 4 4 5 5 3 2 2 2 2 2
2 2 0 1 2 3 3 4 3 4 5 7 5 5 5 7 8 13 12 15 13 11 11 8 4 1 4 9 10 10 11 10 11 10 10 8 7 7 9 9 8 7 7 5 4 4 2 1 1 1 1 1 2 2
1 1 2 3 2 2 3 5 8 9 8 6 10 10 8 6 6 5 10 12 10 9 8 7 5 3 5 6 5 6 8 10 10 7 7 7 6 6 6 8 8 8 6 4 3 2 2 1 1 1 2 2 3 3
1 2 1 2 1 3 6 2 2 2 2 2 2 2 3 3 2 3 9 12 9 8 7 6 4 3 4 5 5 6 7 11 10 7 6 6 5 5 7 9 9 8 5 3 3 2 3 3 3 3 4 5 5 5
1 2 3 3 2 2 2 4 2 2 2 2 1 2 2 2 2 5 12 14 10 7 6 5 2 1 3 5 6 5 7 10 9 6 5 5 6 7 9 9 8 6 4 2 2 2 3 3 4 4 5 6 6 6
Wind_Direction
293 294 296 296 293 296 299 300 298 304 302 305 304 296 294 299 291 284 288 294 293 287 287 275 271 275 282 271 265 298 313 266 159 216 260 277 278 265 323 235 176 179 178 197 191 222 264 141 121 203 84 352 329 128
290 291 289 292 293 295 294 294 292 296 300 298 305 300 297 298 293 292 286 298 298 286 278 287 285 286 284 281 268 265 262 268 226 239 268 306 299 280 239 270 137 292 191 197 199 221 99 188 154 187 212 187 273 194
288 289 288 291 293 293 293 288 289 294 293 298 294 300 299 299 292 285 293 300 301 290 298 282 296 308 294 279 267 255 270 254 247 240 266 247 241 157 243 241 185 245 137 206 63 263 251 226 223 254 245 238 216 214
287 287 288 287 289 291 287 285 288 290 293 295 298 293 296 299 299 296 291 295 288 283 277 291 282 281 287 279 271 260 258 259 267 271 233 237 246 205 234 265 178 193 107 216 259 290 295 236 267 267 256 239 213 202
286 285 285 289 287 287 283 279 281 288 291 293 296 298 297 299 301 300 296 292 280 255 279 286 289 283 271 270 274 264 257 259 256 223 227 239 264 35 222 80 246 187 203 208 260 43 240 154 283 273 253 235 213 192
282 283 283 283 282 282 279 278 279 284 288 292 297 293 295 296 300 313 305 286 297 240 261 294 274 266 280 282 278 277 264 257 229 232 247 251 241 244 263 251 291 45 4 345 294 304 284 266 294 300 261 217 194 192
281 280 280 277 276 278 275 275 277 278 281 291 289 293 292 289 294 287 262 278 294 307 301 280 224 335 4 30 350 327 294 234 229 254 234 276 179 238 266 253 5 358 321 302 262 275 265 270 344 146 170 168 162 170
275 276 275 273 272 273 272 271 274 269 273 287 287 291 294 292 290 279 271 278 274 276 237 263 265 214 7 350 293 273 280 238 232 277 291 284 267 247 261 18 2 337 345 322 305 261 253 85 140 154 169 165 160 162
271 270 270 270 269 271 268 271 275 267 271 282 290 297 298 282 250 255 269 275 269 225 272 290 307 323 358 295 287 292 300 281 245 258 191 347 225 232 264 346 326 335 340 290 317 119 123 141 139 147 155 162 175 170
267 267 268 264 266 266 266 266 271 254 264 280 296 300 266 230 278 305 320 225 173 213 236 258 246 278 330 349 255 315 159 302 307 75 320 230 260 260 287 287 278 281 313 347 130 129 152 148 154 159 169 174 178 171
263 260 259 257 257 259 256 261 251 229 254 282 241 235 257 282 305 264 227 218 159 233 214 225 215 300 312 298 345 35 332 19 290 53 346 272 267 111 332 331 240 229 228 135 89 128 157 171 160 158 162 169 181 209
253 250 249 248 249 246 249 256 215 217 227 214 263 287 289 236 211 236 217 139 218 232 181 207 178 218 282 269 275 14 296 35 268 339 279 263 236 337 344 179 172 163 151 138 117 126 121 139 145 151 159 187 203 213
247 242 243 240 241 240 243 240 199 215 226 252 258 249 224 178 276 201 215 208 227 178 184 188 211 187 309 227 278 305 249 228 309 245 244 238 120 335 178 162 146 145 144 135 134 133 137 146 156 169 172 176 220 231
242 234 234 231 232 232 236 205 197 195 190 212 209 244 187 207 239 203 274 47 109 132 165 170 147 206 172 221 308 255 81 324 280 249 241 241 340 223 169 163 157 150 149 147 143 141 141 139 146 154 162 164 166 306
236 230 224 223 224 225 228 191 187 182 187 195 205 240 223 239 252 210 183 156 154 168 155 135 134 222 158 256 215 355 235 249 225 240 230 189 325 176 173 171 167 163 161 158 156 152 146 142 139 134 122 82 12 339
227 224 220 215 213 214 199 180 170 177 197 194 226 259 228 335 204 206 187 196 212 162 161 141 118 205 239 196 165 219 245 233 241 211 247 302 264 184 180 174 172 172 168 170 169 169 167 150 135 127 82 23 347 335
214 210 213 204 202 202 179 169 167 175 192 208 234 239 253 269 258 224 190 186 185 157 187 159 196 221 66 208 236 208 217 240 298 292 290 282 223 189 183 185 182 178 179 183 187 179 177 194 177 135 9 343 331 325
200 206 203 194 182 163 163 163 165 178 219 231 234 230 221 217 216 219 187 195 173 191 179 221 141 191 217 215 226 224 231 275 297 307 292 238 187 181 182 181 180 183 189 194 190 192 212 206 204 294 325 324 319 317
195 193 188 184 170 144 127 163 178 204 222 231 234 247 248 236 236 229 209 222 193 192 200 214 238 215 222 222 236 239 259 298 308 315 279 193 184 180 180 181 187 191 197 198 198 212 215 218 253 306 312 311 309 316
184 181 177 169 163 113 123 148 178 222 213 209 231 229 216 217 226 227 210 198 201 197 217 222 224 228 213 227 243 249 268 315 309 293 231 195 189 185 186 191 191 193 197 199 208 218 220 230 259 284 299 304 306 307
150 148 156 161 130 107 132 151 167 196 218 194 240 218 210 256 211 200 209 191 191 218 239 241 245 255 253 266 278 272 281 303 300 262 242 207 192 192 192 191 194 201 204 209 217 220 230 249 274 290 297 302 309 314
138 149 139 136 89 138 110 150 142 171 177 207 216 226 231 216 200 198 189 199 237 231 228 254 268 269 270 270 280 286 283 278 282 231 220 216 200 198 198 199 203 206 209 218 223 229 241 262 279 289 295 299 306 310
139 132 109 95 116 97 92 166 145 169 112 211 269 313 245 214 222 223 245 234 253 254 253 264 277 282 280 277 272 268 269 285 255 207 214 212 206 209 207 207 208 211 218 220 226 233 250 270 281 291 293 301 304 303
132 98 130 111 81 139 136 95 132 105 55 345 97 298 276 195 235 231 254 249 252 275 295 304 303 297 297 293 276 258 268 272 210 197 210 201 197 198 202 206 209 214 218 222 235 247 260 271 274 285 296 301 304 303
140 40 153 15 120 99 95 99 348 69 272 204 221 268 217 166 253 238 240 264 278 292 305 324 331 320 296 283 289 275 279 209 194 192 202 196 194 196 200 202 208 216 223 232 247 261 266 271 278 286 293 299 303 302
81 34 93 149 155 175 179 169 198 207 200 211 220 125 134 262 267 248 236 281 273 293 315 324 326 324 317 281 255 312 202 184 189 200 203 200 198 209 216 215 218 222 231 241 251 263 268 272 283 289 293 295 290 290
115 202 143 142 142 148 139 127 143 207 207 209 171 161 163 248 250 239 260 275 292 309 313 311 307 297 277 248 222 215 186 190 192 196 196 196 200 202 201 205 210 219 237 247 243 250 268 286 291 291 288 282 276 276
98 149 176 176 173 195 190 187 191 216 210 165 139 192 207 211 253 267 278 309 313 315 315 313 305 283 243 218 207 202 195 195 199 201 204 200 201 203 206 210 215 227 241 228 221 246 281 292 294 288 278 272 270 262
93 128 150 137 203 215 225 217 224 197 195 178 213 237 240 245 266 298 313 323 328 329 330 332 326 290 213 199 197 200 201 200 205 206 207 209 205 208 212 216 221 229 219 209 225 267 288 292 285 266 254 248 246 238
25 174 237 211 210 236 193 212 223 235 230 225 250 274 276 278 296 311 322 333 337 345 353 359 7 90 171 184 191 197 202 204 200 204 214 213 210 214 215 217 218 210 200 209 246 276 290 297 309 222 226 243 237 235
322 208 264 241 279 249 271 280 275 271 263 252 248 255 264 288 300 318 348 352 356 5 12 17 36 69 144 159 175 183 188 186 187 191 192 194 201 212 210 204 198 193 197 219 253 267 289 307 276 272 269 275 275 274
234 222 304 288 295 302 312 319 281 264 263 263 268 256 273 274 292 323 347 354 352 354 3 15 43 112 147 170 179 183 188 182 181 185 192 201 206 201 194 189 186 188 200 229 260 271 287 289 286 284 281 282 280 275
277 256 253 280 282 312 318 329 286 303 262 267 267 294 308 321 336 356 351 353 346 343 353 4 32 109 150 158 160 161 172 181 187 192 198 200 186 183 182 179 183 192 210 246 276 287 287 286 284 282 282 280 277 271
Height
1523 1520 1517 1515 1512 1509 1508 1505 1502 1499 1496 1493 1490 1489 1489 1486 1484 1484 1481 1482 1481 1473 1463 1460 1460 1460 1459 1458 1454 1453 1452 1450 1451 1450 1442 1434 1434 1429 1430 1418 1428 1431 1436 1436 1434 1431 1424 1407 1410 1411 1408 1408 1407 1406
1514 1511 1508 1506 1504 1502 1500 1497 1495 1493 1491 1488 1485 1484 1483 1482 1479 1479 1476 1476 1474 1470 1460 1454 1452 1452 1450 1449 1452 1449 1447 1446 1444 1443 1439 1434 1437 1430 1427 1420 1409 1425 1416 1416 1417 1405 1399 1402 1404 1405 1406 1406 1407 1406
1505 1503 1500 1499 1496 1494 1492 1489 1488 1487 1485 1483 1481 1479 1478 1476 1475 1474 1470 1469 1468 1460 1449 1444 1441 1443 1442 1442 1444 1444 1440 1439 1435 1433 1431 1426 1422 1420 1418 1412 1413 1407 1408 1415 1413 1396 1398 1399 1401 1402 1403 1405 1406 1406
1495 1492 1490 1489 1488 1485 1483 1483 1482 1480 1479 1477 1475 1474 1473 1471 1469 1467 1465 1465 1463 1458 1449 1438 1436 1436 1436 1436 1436 1435 1432 1431 1429 1428 1427 1423 1419 1414 1412 1409 1410 1405 1407 1408 1404 1398 1396 1397 1399 1399 1399 1402 1403 1405
1484 1482 1480 1480 1479 1477 1476 1475 1475 1474 1473 1471 1470 1468 1468 1466 1464 1461 1458 1456 1455 1458 1446 1436 1434 1429 1427 1427 1426 1427 1427 1426 1426 1426 1423 1419 1413 1412 1408 1408 1405 1398 1399 1402 1396 1397 1398 1398 1398 1398 1398 1399 1401 1404
1473 1472 1470 1470 1470 1469 1469 1468 1468 1468 1467 1466 1464 1463 1462 1460 1459 1456 1452 1448 1445 1446 1444 1433 1428 1423 1422 1422 1422 1422 1422 1422 1423 1421 1418 1414 1411 1413 1407 1400 1395 1396 1395 1396 1396 1395 1396 1396 1396 1396 1396 1398 1401 1404
1462 1461 1462 1460 1461 1461 1461 1462 1462 1461 1461 1460 1459 1457 1456 1455 1454 1455 1452 1447 1445 1445 1445 1435 1424 1422 1421 1421 1421 1420 1419 1419 1420 1418 1415 1412 1411 1412 1406 1401 1396 1395 1395 1394 1393 1394 1395 1395 1395 1396 1397 1399 1401 1404
1452 1451 1452 1452 1453 1453 1454 1455 1454 1454 1454 1454 1453 1451 1450 1447 1446 1445 1443 1442 1442 1443 1442 1433 1423 1424 1423 1421 1421 1420 1419 1418 1417 1415 1413 1412 1412 1411 1406 1398 1397 1397 1395 1394 1394 1394 1394 1394 1395 1397 1398 1400 1403 1405
1440 1441 1443 1444 1444 1445 1446 1447 1447 1447 1448 1448 1447 1446 1443 1440 1439 1438 1438 1437 1438 1442 1435 1429 1427 1423 1424 1422 1421 1420 1419 1418 1417 1416 1414 1415 1410 1407 1399 1398 1398 1397 1396 1395 1394 1394 1395 1395 1396 1398 1400 1402 1404 1405
1429 1431 1433 1435 1436 1438 1439 1440 1440 1442 1444 1444 1444 1443 1439 1437 1436 1437 1434 1435 1434 1434 1433 1429 1428 1426 1427 1423 1420 1421 1420 1420 1420 1416 1415 1414 1404 1397 1396 1396 1395 1395 1395 1394 1395 1396 1396 1397 1398 1399 1401 1403 1404 1405
1419 1422 1424 1425 1428 1430 1432 1433 1435 1438 1439 1440 1439 1439 1436 1435 1434 1433 1433 1433 1432 1431 1428 1427 1427 1426 1425 1425 1422 1423 1420 1419 1421 1417 1418 1408 1402 1395 1395 1393 1392 1393 1394 1395 1395 1396 1397 1398 1399 1401 1402 1404 1405 1406
1408 1412 1415 1418 1420 1423 1426 1427 1429 1433 1435 1436 1437 1435 1433 1432 1433 1433 1430 1431 1430 1426 1425 1425 1425 1425 1424 1424 1424 1423 1422 1422 1419 1419 1418 1410 1395 1394 1393 1392 1393 1393 1394 1396 1397 1397 1398 1400 1401 1403 1403 1404 1405 1406
1398 1403 1407 1410 1413 1417 1419 1422 1425 1428 1432 1434 1433 1433 1431 1431 1433 1430 1432 1422 1425 1420 1422 1423 1423 1423 1424 1425 1424 1424 1423 1420 1419 1419 1410 1398 1394 1393 1392 1392 1393 1395 1396 1398 1399 1400 1401 1402 1402 1403 1404 1404 1405 1406
1387 1393 1399 1403 1406 1410 1413 1416 1421 1425 1430 1430 1431 1428 1429 1426 1424 1416 1415 1413 1417 1418 1420 1421 1422 1423 1423 1424 1423 1423 1422 1422 1420 1416 1403 1394 1393 1392 1392 1393 1395 1396 1398 1399 1401 1402 1402 1403 1403 1404 1404 1405 1405 1405
1377 1383 1389 1395 1400 1404 1408 1411 1416 1422 1426 1427 1427 1424 1419 1414 1413 1413 1414 1416 1416 1418 1419 1420 1421 1422 1422 1423 1422 1423 1422 1418 1408 1399 1394 1392 1391 1391 1392 1394 1395 1397 1399 1401 1402 1403 1403 1404 1404 1405 1405 1405 1405 1405
1369 1375 1380 1387 1394 1399 1403 1406 1414 1419 1421 1422 1421 1416 1413 1414 1412 1412 1413 1414 1415 1416 1418 1419 1420 1423 1422 1420 1422 1417 1412 1404 1394 1392 1391 1391 1390 1391 1392 1394 1396 1398 1400 1401 1403 1404 1404 1404 1405 1405 1404 1404 1404 1404
1361 1365 1372 1381 1388 1394 1397 1405 1412 1414 1416 1416 1412 1411 1411 1410 1410 1410 1410 1412 1413 1415 1416 1417 1420 1418 1417 1420 1414 1406 1402 1393 1390 1390 1389 1388 1388 1389 1391 1394 1396 1398 1399 1401 1402 1403 1404 1404 1404 1404 1404 1404 1404 1403
1354 1359 1369 1377 1383 1387 1396 1403 1407 1409 1410 1408 1408 1405 1405 1406 1407 1407 1408 1409 1411 1412 1413 1412 1412 1413 1407 1405 1397 1391 1389 1389 1388 1387 1385 1385 1386 1388 1390 1393 1395 1397 1399 1401 1402 1402 1403 1404 1404 1404 1403 1403 1403 1402
1346 1357 1365 1372 1378 1387 1396 1402 1404 1404 1403 1403 1402 1402 1402 1403 1403 1404 1405 1406 1408 1409 1410 1409 1407 1401 1394 1389 1387 1387 1387 1387 1386 1385 1384 1384 1386 1388 1390 1392 1395 1396 1398 1400 1401 1401 1402 1402 1403 1402 1402 1402 1401 1400
1349 1357 1365 1372 1378 1386 1393 1398 1400 1399 1400 1400 1399 1399 1400 1400 1400 1400 1402 1403 1406 1407 1406 1401 1391 1385 1385 1385 1385 1386 1386 1385 1384 1383 1383 1384 1385 1387 1389 1391 1393 1396 1397 1398 1399 1400 1401 1401 1401 1401 1400 1400 1399 1398
1352 1360 1365 1372 1380 1387 1391 1393 1395 1397 1397 1398 1397 1398 1398 1397 1398 1399 1399 1401 1403 1398 1392 1385 1383 1383 1383 1383 1383 1383 1383 1382 1381 1381 1381 1382 1384 1386 1388 1390 1392 1394 1395 1396 1398 1399 1399 1399 1399 1399 1398 1397 1397 1396
1357 1365 1370 1378 1384 1387 1390 1392 1394 1395 1397 1396 1397 1396 1395 1396 1396 1396 1397 1397 1392 1385 1383 1381 1381 1380 1380 1379 1379 1378 1378 1377 1377 1377 1379 1379 1381 1383 1385 1387 1390 1392 1394 1396 1397 1397 1397 1397 1397 1397 1396 1396 1395 1394
1364 1371 1378 1383 1385 1388 1394 1394 1394 1395 1396 1396 1395 1395 1395 1394 1394 1395 1394 1390 1383 1379 1378 1378 1377 1376 1375 1374 1373 1373 1373 1373 1373 1374 1376 1378 1380 1383 1385 1387 1389 1391 1393 1394 1395 1395 1396 1396 1395 1395 1394 1394 1393 1393
1372 1378 1381 1383 1386 1392 1393 1393 1394 1395 1395 1395 1396 1396 1394 1393 1393 1393 1391 1382 1377 1376 1376 1375 1374 1372 1370 1369 1367 1368 1370 1369 1370 1373 1375 1377 1379 1381 1383 1386 1388 1390 1391 1392 1393 1394 1394 1394 1394 1393 1393 1392 1392 1391
1380 1384 1385 1387 1388 1391 1394 1395 1395 1396 1397 1394 1394 1393 1392 1393 1393 1390 1385 1377 1375 1375 1374 1373 1371 1369 1367 1366 1366 1366 1366 1366 1369 1372 1374 1376 1378 1380 1382 1384 1386 1388 1389 1390 1391 1391 1392 1391 1391 1391 1390 1390 1389 1389
1383 1384 1385 1384 1387 1389 1389 1390 1392 1391 1391 1391 1391 1392 1392 1392 1392 1386 1377 1375 1374 1374 1372 1370 1368 1366 1365 1365 1365 1365 1365 1367 1370 1372 1374 1375 1377 1379 1381 1382 1384 1386 1387 1388 1388 1389 1389 1389 1389 1389 1388 1388 1387 1387
1383 1384 1383 1384 1384 1385 1387 1387 1388 1388 1388 1389 1388 1391 1391 1392 1387 1377 1374 1373 1373 1371 1369 1366 1364 1362 1362 1363 1364 1365 1366 1367 1369 1372 1373 1374 1376 1378 1380 1381 1382 1384 1384 1385 1386 1386 1387 1387 1387 1387 1386 1386 1386 1386
1381 1382 1383 1384 1384 1384 1385 1385 1386 1385 1384 1384 1386 1388 1386 1382 1376 1374 1373 1372 1370 1367 1363 1360 1357 1356 1357 1359 1362 1363 1365 1366 1368 1370 1372 1373 1375 1376 1378 1380 1381 1382 1382 1383 1384 1385 1385 1385 1385 1384 1384 1385 1385 1385
1381 1382 1383 1383 1383 1383 1382 1382 1381 1381 1381 1382 1382 1379 1377 1375 1374 1373 1371 1368 1365 1362 1359 1356 1354 1354 1354 1356 1358 1361 1363 1365 1367 1368 1370 1371 1373 1375 1376 1378 1379 1380 1381 1382 1383 1383 1383 1383 1383 1383 1383 1384 1384 1385
1382 1382 1382 1382 1382 1379 1379 1379 1379 1379 1379 1380 1379 1377 1375 1373 1372 1371 1369 1367 1364 1361 1358 1356 1354 1354 1355 1356 1358 1361 1363 1364 1366 1369 1370 1371 1372 1374 1375 1376 1377 1379 1380 1381 1382 1382 1382 1381 1382 1382 1383 1383 1384 1384
1382 1382 1382 1380 1379 1378 1378 1378 1377 1377 1376 1376 1375 1375 1374 1372 1370 1369 1368 1366 1364 1361 1360 1358 1357 1356 1357 1358 1359 1361 1363 1365 1366 1368 1369 1371 1372 1373 1374 1375 1377 1378 1380 1381 1381 1382 1381 1381 1381 1382 1382 1383 1383 1383
1381 1381 1381 1380 1379 1378 1377 1376 1376 1375 1374 1374 1373 1373 1372 1371 1370 1370 1369 1366 1365 1363 1362 1360 1359 1359 1359 1360 1361 1362 1363 1364 1366 1368 1369 1370 1371 1372 1373 1375 1376 1378 1379 1380 1381 1381 1381 1381 1381 1381 1382 1382 1382 1382
1381 1381 1381 1380 1379 1378 1377 1377 1375 1374 1374 1373 1373 1372 1372 1372 1371 1371 1369 1367 1365 1364 1363 1362 1361 1361 1360 1361 1362 1363 1364 1365 1367 1368 1369 1370 1371 1372 1374 1375 1377 1378 1379 1380 1380 1380 1380 1380 1380 1380 1380 1380 1380 1380